owner,sensor,date,latitude,longitude,vertical_datum,sea_water_practical_salinity,qcFlag 
NERRS,ioos:station:NOAA.NERRS:gndbcwq:1,2016-06-01T00:45:00Z,30.3836,-88.4364,0.55,15.9,1111122 
NERRS,ioos:station:NOAA.NERRS:gndbcwq:1,2016-06-01T01:45:00Z,30.3836,-88.4364,0.59,16.4,1111122 
NERRS,ioos:station:NOAA.NERRS:gndbcwq:1,2016-06-01T02:45:00Z,30.3836,-88.4364,0.62,16.4,1111122 
NERRS,ioos:station:NOAA.NERRS:gndbcwq:1,2016-06-01T03:45:00Z,30.3836,-88.4364,0.58,16.2,1111122 
NERRS,ioos:station:NOAA.NERRS:gndbcwq:1,2016-06-01T04:45:00Z,30.3836,-88.4364,0.56,16.0,1111122 
NERRS,ioos:station:NOAA.NERRS:gndbcwq:1,2016-06-01T06:45:00Z,30.3836,-88.4364,0.56,16.7,1111122 
NERRS,ioos:station:NOAA.NERRS:gndbcwq:1,2016-06-01T07:45:00Z,30.3836,-88.4364,0.62,16.6,1111122 
NERRS,ioos:station:NOAA.NERRS:gndbcwq:1,2016-06-01T08:45:00Z,30.3836,-88.4364,0.66,17.0,1111122 
NERRS,ioos:station:NOAA.NERRS:gndbcwq:1,2016-06-01T09:45:00Z,30.3836,-88.4364,0.7,17.6,1111122 
NERRS,ioos:station:NOAA.NERRS:gndbcwq:1,2016-06-01T10:45:00Z,30.3836,-88.4364,0.72,17.7,1111122 
NERRS,ioos:station:NOAA.NERRS:gndbcwq:1,2016-06-01T12:45:00Z,30.3836,-88.4364,0.73,17.6,1111122 
NERRS,ioos:station:NOAA.NERRS:gndbcwq:1,2016-06-01T13:45:00Z,30.3836,-88.4364,0.73,17.7,1111122 
NERRS,ioos:station:NOAA.NERRS:gndbcwq:1,2016-06-01T14:45:00Z,30.3836,-88.4364,0.75,17.8,1111122 
NERRS,ioos:station:NOAA.NERRS:gndbcwq:1,2016-06-01T15:45:00Z,30.3836,-88.4364,0.72,17.8,1111122 
NERRS,ioos:station:NOAA.NERRS:gndbcwq:1,2016-06-01T16:45:00Z,30.3836,-88.4364,0.65,17.5,1111122 
NERRS,ioos:station:NOAA.NERRS:gndbcwq:1,2016-06-01T17:45:00Z,30.3836,-88.4364,0.55,16.9,1111122 
NERRS,ioos:station:NOAA.NERRS:gndbcwq:1,2016-06-01T18:45:00Z,30.3836,-88.4364,0.48,16.5,1111122 
NERRS,ioos:station:NOAA.NERRS:gndbcwq:1,2016-06-01T19:45:00Z,30.3836,-88.4364,0.45,16.3,1111122 
NERRS,ioos:station:NOAA.NERRS:gndbcwq:1,2016-06-01T20:45:00Z,30.3836,-88.4364,0.45,16.2,1111122 
NERRS,ioos:station:NOAA.NERRS:gndbcwq:1,2016-06-01T21:45:00Z,30.3836,-88.4364,0.46,16.2,1111122 
NERRS,ioos:station:NOAA.NERRS:gndbcwq:1,2016-06-01T22:45:00Z,30.3836,-88.4364,0.47,16.2,1111122 
NERRS,ioos:station:NOAA.NERRS:gndbcwq:1,2016-06-01T23:45:00Z,30.3836,-88.4364,0.47,16.3,1111122 
NERRS,ioos:station:NOAA.NERRS:gndbcwq:1,2016-06-02T00:45:00Z,30.3836,-88.4364,0.5,16.4,1111122 
NERRS,ioos:station:NOAA.NERRS:gndbcwq:1,2016-06-02T02:45:00Z,30.3836,-88.4364,0.6,16.7,1111122 
NERRS,ioos:station:NOAA.NERRS:gndbcwq:1,2016-06-02T03:45:00Z,30.3836,-88.4364,0.61,16.8,1111122 
NERRS,ioos:station:NOAA.NERRS:gndbcwq:1,2016-06-02T04:45:00Z,30.3836,-88.4364,0.62,16.8,1111122 
NERRS,ioos:station:NOAA.NERRS:gndbcwq:1,2016-06-02T05:45:00Z,30.3836,-88.4364,0.61,16.8,1111122 
NERRS,ioos:station:NOAA.NERRS:gndbcwq:1,2016-06-02T06:45:00Z,30.3836,-88.4364,0.62,16.7,1111122 
NERRS,ioos:station:NOAA.NERRS:gndbcwq:1,2016-06-02T07:45:00Z,30.3836,-88.4364,0.64,16.8,1111122 
NERRS,ioos:station:NOAA.NERRS:gndbcwq:1,2016-06-02T08:45:00Z,30.3836,-88.4364,0.7,17.3,1111122 
NERRS,ioos:station:NOAA.NERRS:gndbcwq:1,2016-06-02T09:45:00Z,30.3836,-88.4364,0.75,18.0,1111122 
NERRS,ioos:station:NOAA.NERRS:gndbcwq:1,2016-06-02T10:45:00Z,30.3836,-88.4364,0.8,18.4,1111122 
NERRS,ioos:station:NOAA.NERRS:gndbcwq:1,2016-06-02T11:45:00Z,30.3836,-88.4364,0.83,18.8,1111122 
NERRS,ioos:station:NOAA.NERRS:gndbcwq:1,2016-06-02T12:45:00Z,30.3836,-88.4364,0.82,19.0,1111122 
NERRS,ioos:station:NOAA.NERRS:gndbcwq:1,2016-06-02T13:45:00Z,30.3836,-88.4364,0.8,18.8,1111122 
NERRS,ioos:station:NOAA.NERRS:gndbcwq:1,2016-06-02T14:45:00Z,30.3836,-88.4364,0.79,18.7,1111122 
NERRS,ioos:station:NOAA.NERRS:gndbcwq:1,2016-06-02T15:45:00Z,30.3836,-88.4364,0.8,19.1,1111122 
NERRS,ioos:station:NOAA.NERRS:gndbcwq:1,2016-06-02T16:45:00Z,30.3836,-88.4364,0.75,18.7,1111122 
NERRS,ioos:station:NOAA.NERRS:gndbcwq:1,2016-06-02T17:45:00Z,30.3836,-88.4364,0.67,18.2,1111122 
NERRS,ioos:station:NOAA.NERRS:gndbcwq:1,2016-06-02T18:45:00Z,30.3836,-88.4364,0.57,18.0,1111122 
NERRS,ioos:station:NOAA.NERRS:gndbcwq:1,2016-06-02T19:45:00Z,30.3836,-88.4364,0.52,17.2,1111122 
NERRS,ioos:station:NOAA.NERRS:gndbcwq:1,2016-06-02T20:45:00Z,30.3836,-88.4364,0.49,16.9,1111122 
NERRS,ioos:station:NOAA.NERRS:gndbcwq:1,2016-06-02T21:45:00Z,30.3836,-88.4364,0.48,17.1,1111122 
NERRS,ioos:station:NOAA.NERRS:gndbcwq:1,2016-06-02T22:45:00Z,30.3836,-88.4364,0.51,17.3,1111122 
NERRS,ioos:station:NOAA.NERRS:gndbcwq:1,2016-06-02T23:45:00Z,30.3836,-88.4364,0.51,17.1,1111122 
NERRS,ioos:station:NOAA.NERRS:gndbcwq:1,2016-06-03T00:45:00Z,30.3836,-88.4364,0.51,17.0,1111122 
NERRS,ioos:station:NOAA.NERRS:gndbcwq:1,2016-06-03T01:45:00Z,30.3836,-88.4364,0.55,17.3,1111122 
NERRS,ioos:station:NOAA.NERRS:gndbcwq:1,2016-06-03T02:45:00Z,30.3836,-88.4364,0.59,17.3,1111122 
NERRS,ioos:station:NOAA.NERRS:gndbcwq:1,2016-06-03T03:45:00Z,30.3836,-88.4364,0.67,17.6,1111122 
NERRS,ioos:station:NOAA.NERRS:gndbcwq:1,2016-06-03T04:45:00Z,30.3836,-88.4364,0.71,18.0,1111122 
NERRS,ioos:station:NOAA.NERRS:gndbcwq:1,2016-06-03T05:45:00Z,30.3836,-88.4364,0.75,18.3,1111122 
NERRS,ioos:station:NOAA.NERRS:gndbcwq:1,2016-06-03T06:45:00Z,30.3836,-88.4364,0.76,18.5,1111122 
NERRS,ioos:station:NOAA.NERRS:gndbcwq:1,2016-06-03T07:45:00Z,30.3836,-88.4364,0.78,18.7,1111122 
NERRS,ioos:station:NOAA.NERRS:gndbcwq:1,2016-06-03T08:45:00Z,30.3836,-88.4364,0.81,19.2,1111122 
NERRS,ioos:station:NOAA.NERRS:gndbcwq:1,2016-06-03T10:45:00Z,30.3836,-88.4364,0.92,20.2,1111122 
NERRS,ioos:station:NOAA.NERRS:gndbcwq:1,2016-06-03T11:45:00Z,30.3836,-88.4364,0.97,19.9,1111122 
NERRS,ioos:station:NOAA.NERRS:gndbcwq:1,2016-06-03T12:45:00Z,30.3836,-88.4364,0.97,19.9,1111122 
NERRS,ioos:station:NOAA.NERRS:gndbcwq:1,2016-06-03T13:45:00Z,30.3836,-88.4364,0.96,19.8,1111122 
NERRS,ioos:station:NOAA.NERRS:gndbcwq:1,2016-06-03T14:45:00Z,30.3836,-88.4364,0.94,19.8,1111122 
NERRS,ioos:station:NOAA.NERRS:gndbcwq:1,2016-06-03T15:45:00Z,30.3836,-88.4364,0.91,19.8,1111122 
NERRS,ioos:station:NOAA.NERRS:gndbcwq:1,2016-06-03T16:45:00Z,30.3836,-88.4364,0.87,19.9,1111122 
NERRS,ioos:station:NOAA.NERRS:gndbcwq:1,2016-06-03T17:45:00Z,30.3836,-88.4364,0.8,19.8,1111122 
NERRS,ioos:station:NOAA.NERRS:gndbcwq:1,2016-06-03T18:45:00Z,30.3836,-88.4364,0.73,19.6,1111122 
NERRS,ioos:station:NOAA.NERRS:gndbcwq:1,2016-06-03T19:45:00Z,30.3836,-88.4364,0.63,19.3,1111122 
NERRS,ioos:station:NOAA.NERRS:gndbcwq:1,2016-06-03T20:45:00Z,30.3836,-88.4364,0.53,18.9,1111122 
NERRS,ioos:station:NOAA.NERRS:gndbcwq:1,2016-06-03T21:45:00Z,30.3836,-88.4364,0.46,18.6,1111122 
NERRS,ioos:station:NOAA.NERRS:gndbcwq:1,2016-06-03T22:45:00Z,30.3836,-88.4364,0.46,17.5,1111122 
NERRS,ioos:station:NOAA.NERRS:gndbcwq:1,2016-06-03T23:45:00Z,30.3836,-88.4364,0.48,18.0,1111122 
NERRS,ioos:station:NOAA.NERRS:gndbcwq:1,2016-06-04T00:45:00Z,30.3836,-88.4364,0.49,17.4,1111122 
NERRS,ioos:station:NOAA.NERRS:gndbcwq:1,2016-06-04T01:45:00Z,30.3836,-88.4364,0.54,18.0,1111122 
NERRS,ioos:station:NOAA.NERRS:gndbcwq:1,2016-06-04T02:45:00Z,30.3836,-88.4364,0.57,18.2,1111122 
NERRS,ioos:station:NOAA.NERRS:gndbcwq:1,2016-06-04T03:45:00Z,30.3836,-88.4364,0.63,18.3,1111122 
NERRS,ioos:station:NOAA.NERRS:gndbcwq:1,2016-06-04T04:45:00Z,30.3836,-88.4364,0.69,18.4,1111122 
NERRS,ioos:station:NOAA.NERRS:gndbcwq:1,2016-06-04T05:45:00Z,30.3836,-88.4364,0.64,18.4,1111122 
NERRS,ioos:station:NOAA.NERRS:gndbcwq:1,2016-06-04T06:45:00Z,30.3836,-88.4364,0.64,18.3,1111122 
NERRS,ioos:station:NOAA.NERRS:gndbcwq:1,2016-06-04T07:45:00Z,30.3836,-88.4364,0.67,18.4,1111122 
NERRS,ioos:station:NOAA.NERRS:gndbcwq:1,2016-06-04T08:45:00Z,30.3836,-88.4364,0.74,18.9,1111122 
NERRS,ioos:station:NOAA.NERRS:gndbcwq:1,2016-06-04T09:45:00Z,30.3836,-88.4364,0.83,19.5,1111122 
NERRS,ioos:station:NOAA.NERRS:gndbcwq:1,2016-06-04T10:45:00Z,30.3836,-88.4364,0.91,19.9,1111122 
NERRS,ioos:station:NOAA.NERRS:gndbcwq:1,2016-06-04T11:45:00Z,30.3836,-88.4364,0.97,19.7,1111122 
NERRS,ioos:station:NOAA.NERRS:gndbcwq:1,2016-06-04T12:45:00Z,30.3836,-88.4364,1.02,19.8,1111122 
NERRS,ioos:station:NOAA.NERRS:gndbcwq:1,2016-06-04T13:45:00Z,30.3836,-88.4364,1.03,19.5,1111122 
NERRS,ioos:station:NOAA.NERRS:gndbcwq:1,2016-06-04T14:45:00Z,30.3836,-88.4364,1.03,19.5,1111122 
NERRS,ioos:station:NOAA.NERRS:gndbcwq:1,2016-06-04T15:45:00Z,30.3836,-88.4364,0.99,19.5,1111122 
NERRS,ioos:station:NOAA.NERRS:gndbcwq:1,2016-06-04T16:45:00Z,30.3836,-88.4364,0.95,19.6,1111122 
NERRS,ioos:station:NOAA.NERRS:gndbcwq:1,2016-06-04T17:45:00Z,30.3836,-88.4364,0.9,19.6,1111122 
NERRS,ioos:station:NOAA.NERRS:gndbcwq:1,2016-06-04T18:45:00Z,30.3836,-88.4364,0.82,19.6,1111122 
NERRS,ioos:station:NOAA.NERRS:gndbcwq:1,2016-06-04T19:45:00Z,30.3836,-88.4364,0.78,19.3,1111122 
NERRS,ioos:station:NOAA.NERRS:gndbcwq:1,2016-06-04T20:45:00Z,30.3836,-88.4364,0.69,18.9,1111122 
NERRS,ioos:station:NOAA.NERRS:gndbcwq:1,2016-06-04T21:45:00Z,30.3836,-88.4364,0.58,18.4,1111122 
NERRS,ioos:station:NOAA.NERRS:gndbcwq:1,2016-06-04T22:45:00Z,30.3836,-88.4364,0.55,17.1,1111122 
NERRS,ioos:station:NOAA.NERRS:gndbcwq:1,2016-06-04T23:45:00Z,30.3836,-88.4364,0.46,15.1,1111122 
NERRS,ioos:station:NOAA.NERRS:gndbcwq:1,2016-06-05T00:45:00Z,30.3836,-88.4364,0.45,14.6,1111122 
NERRS,ioos:station:NOAA.NERRS:gndbcwq:1,2016-06-05T01:45:00Z,30.3836,-88.4364,0.41,13.3,1111122 
NERRS,ioos:station:NOAA.NERRS:gndbcwq:1,2016-06-05T02:45:00Z,30.3836,-88.4364,0.43,13.6,1111122 
NERRS,ioos:station:NOAA.NERRS:gndbcwq:1,2016-06-05T03:45:00Z,30.3836,-88.4364,0.5,14.2,1111122 
NERRS,ioos:station:NOAA.NERRS:gndbcwq:1,2016-06-05T04:45:00Z,30.3836,-88.4364,0.62,14.1,1111122 
NERRS,ioos:station:NOAA.NERRS:gndbcwq:1,2016-06-05T05:45:00Z,30.3836,-88.4364,0.67,15.4,1111122 
NERRS,ioos:station:NOAA.NERRS:gndbcwq:1,2016-06-05T06:45:00Z,30.3836,-88.4364,0.67,14.3,1111122 
NERRS,ioos:station:NOAA.NERRS:gndbcwq:1,2016-06-05T07:45:00Z,30.3836,-88.4364,0.68,14.3,1111122 
NERRS,ioos:station:NOAA.NERRS:gndbcwq:1,2016-06-05T08:45:00Z,30.3836,-88.4364,0.67,14.5,1111122 
NERRS,ioos:station:NOAA.NERRS:gndbcwq:1,2016-06-05T09:45:00Z,30.3836,-88.4364,0.71,14.4,1111122 
NERRS,ioos:station:NOAA.NERRS:gndbcwq:1,2016-06-05T10:45:00Z,30.3836,-88.4364,0.79,15.6,1111122 
NERRS,ioos:station:NOAA.NERRS:gndbcwq:1,2016-06-05T11:45:00Z,30.3836,-88.4364,0.87,16.7,1111122 
NERRS,ioos:station:NOAA.NERRS:gndbcwq:1,2016-06-05T12:45:00Z,30.3836,-88.4364,0.94,17.8,1111122 
NERRS,ioos:station:NOAA.NERRS:gndbcwq:1,2016-06-05T13:45:00Z,30.3836,-88.4364,0.99,18.1,1111122 
NERRS,ioos:station:NOAA.NERRS:gndbcwq:1,2016-06-05T14:45:00Z,30.3836,-88.4364,1.05,18.0,1111122 
NERRS,ioos:station:NOAA.NERRS:gndbcwq:1,2016-06-05T15:45:00Z,30.3836,-88.4364,1.04,17.9,1111122 
NERRS,ioos:station:NOAA.NERRS:gndbcwq:1,2016-06-05T16:45:00Z,30.3836,-88.4364,0.98,17.9,1111122 
NERRS,ioos:station:NOAA.NERRS:gndbcwq:1,2016-06-05T17:45:00Z,30.3836,-88.4364,0.91,17.7,1111122 
NERRS,ioos:station:NOAA.NERRS:gndbcwq:1,2016-06-05T18:45:00Z,30.3836,-88.4364,0.85,17.5,1111122 
NERRS,ioos:station:NOAA.NERRS:gndbcwq:1,2016-06-05T19:45:00Z,30.3836,-88.4364,0.8,17.0,1111122 
NERRS,ioos:station:NOAA.NERRS:gndbcwq:1,2016-06-05T20:45:00Z,30.3836,-88.4364,0.73,16.4,1111122 
NERRS,ioos:station:NOAA.NERRS:gndbcwq:1,2016-06-05T21:45:00Z,30.3836,-88.4364,0.63,15.6,1111122 
NERRS,ioos:station:NOAA.NERRS:gndbcwq:1,2016-06-05T22:45:00Z,30.3836,-88.4364,0.52,14.4,1111122 
NERRS,ioos:station:NOAA.NERRS:gndbcwq:1,2016-06-05T23:45:00Z,30.3836,-88.4364,0.42,13.6,1111122 
NERRS,ioos:station:NOAA.NERRS:gndbcwq:1,2016-06-06T00:45:00Z,30.3836,-88.4364,0.4,13.4,1111122 
NERRS,ioos:station:NOAA.NERRS:gndbcwq:1,2016-06-06T01:45:00Z,30.3836,-88.4364,0.41,12.4,1111122 
NERRS,ioos:station:NOAA.NERRS:gndbcwq:1,2016-06-06T02:45:00Z,30.3836,-88.4364,0.45,12.7,1111122 
NERRS,ioos:station:NOAA.NERRS:gndbcwq:1,2016-06-06T03:45:00Z,30.3836,-88.4364,0.47,13.1,1111122 
NERRS,ioos:station:NOAA.NERRS:gndbcwq:1,2016-06-06T04:45:00Z,30.3836,-88.4364,0.52,13.2,1111122 
NERRS,ioos:station:NOAA.NERRS:gndbcwq:1,2016-06-06T05:45:00Z,30.3836,-88.4364,0.57,13.2,1111122 
NERRS,ioos:station:NOAA.NERRS:gndbcwq:1,2016-06-06T06:45:00Z,30.3836,-88.4364,0.63,13.4,1111122 
NERRS,ioos:station:NOAA.NERRS:gndbcwq:1,2016-06-06T07:45:00Z,30.3836,-88.4364,0.67,13.7,1111122 
NERRS,ioos:station:NOAA.NERRS:gndbcwq:1,2016-06-06T08:45:00Z,30.3836,-88.4364,0.72,14.3,1111122 
NERRS,ioos:station:NOAA.NERRS:gndbcwq:1,2016-06-06T09:45:00Z,30.3836,-88.4364,0.75,14.7,1111122 
NERRS,ioos:station:NOAA.NERRS:gndbcwq:1,2016-06-06T10:45:00Z,30.3836,-88.4364,0.79,15.4,1111122 
NERRS,ioos:station:NOAA.NERRS:gndbcwq:1,2016-06-06T11:45:00Z,30.3836,-88.4364,0.85,16.5,1111122 
NERRS,ioos:station:NOAA.NERRS:gndbcwq:1,2016-06-06T12:45:00Z,30.3836,-88.4364,0.92,17.3,1111122 
NERRS,ioos:station:NOAA.NERRS:gndbcwq:1,2016-06-06T13:45:00Z,30.3836,-88.4364,0.97,17.4,1111122 
NERRS,ioos:station:NOAA.NERRS:gndbcwq:1,2016-06-06T14:45:00Z,30.3836,-88.4364,1.01,17.4,1111122 
NERRS,ioos:station:NOAA.NERRS:gndbcwq:1,2016-06-06T15:45:00Z,30.3836,-88.4364,1.04,17.3,1111122 
NERRS,ioos:station:NOAA.NERRS:gndbcwq:1,2016-06-06T16:45:00Z,30.3836,-88.4364,1.03,17.3,1111122 
NERRS,ioos:station:NOAA.NERRS:gndbcwq:1,2016-06-06T17:45:00Z,30.3836,-88.4364,1.0,17.3,1111122 
NERRS,ioos:station:NOAA.NERRS:gndbcwq:1,2016-06-06T18:45:00Z,30.3836,-88.4364,0.95,17.2,1111122 
NERRS,ioos:station:NOAA.NERRS:gndbcwq:1,2016-06-06T20:45:00Z,30.3836,-88.4364,0.81,16.7,1111122 
NERRS,ioos:station:NOAA.NERRS:gndbcwq:1,2016-06-06T21:45:00Z,30.3836,-88.4364,0.73,16.4,1111122 
NERRS,ioos:station:NOAA.NERRS:gndbcwq:1,2016-06-06T22:45:00Z,30.3836,-88.4364,0.65,15.8,1111122 
NERRS,ioos:station:NOAA.NERRS:gndbcwq:1,2016-06-06T23:45:00Z,30.3836,-88.4364,0.58,15.1,1111122 
NERRS,ioos:station:NOAA.NERRS:gndbcwq:1,2016-06-07T00:45:00Z,30.3836,-88.4364,0.52,14.3,1111122 
NERRS,ioos:station:NOAA.NERRS:gndbcwq:1,2016-06-07T01:45:00Z,30.3836,-88.4364,0.54,13.5,1111122 
NERRS,ioos:station:NOAA.NERRS:gndbcwq:1,2016-06-07T02:45:00Z,30.3836,-88.4364,0.55,13.1,1111122 
NERRS,ioos:station:NOAA.NERRS:gndbcwq:1,2016-06-07T03:45:00Z,30.3836,-88.4364,0.58,13.7,1111122 
NERRS,ioos:station:NOAA.NERRS:gndbcwq:1,2016-06-07T04:45:00Z,30.3836,-88.4364,0.59,12.3,1111122 
NERRS,ioos:station:NOAA.NERRS:gndbcwq:1,2016-06-07T05:45:00Z,30.3836,-88.4364,0.6,13.5,1111122 
NERRS,ioos:station:NOAA.NERRS:gndbcwq:1,2016-06-07T06:45:00Z,30.3836,-88.4364,0.62,13.9,1111122 
NERRS,ioos:station:NOAA.NERRS:gndbcwq:1,2016-06-07T07:45:00Z,30.3836,-88.4364,0.68,13.7,1111122 
NERRS,ioos:station:NOAA.NERRS:gndbcwq:1,2016-06-07T08:45:00Z,30.3836,-88.4364,0.73,14.5,1111122 
NERRS,ioos:station:NOAA.NERRS:gndbcwq:1,2016-06-07T09:45:00Z,30.3836,-88.4364,0.79,15.0,1111122 
NERRS,ioos:station:NOAA.NERRS:gndbcwq:1,2016-06-07T10:45:00Z,30.3836,-88.4364,0.83,15.5,1111122 
NERRS,ioos:station:NOAA.NERRS:gndbcwq:1,2016-06-07T11:45:00Z,30.3836,-88.4364,0.88,16.1,1111122 
NERRS,ioos:station:NOAA.NERRS:gndbcwq:1,2016-06-07T12:45:00Z,30.3836,-88.4364,0.94,16.7,1111122 
NERRS,ioos:station:NOAA.NERRS:gndbcwq:1,2016-06-07T13:45:00Z,30.3836,-88.4364,1.0,17.0,1111122 
NERRS,ioos:station:NOAA.NERRS:gndbcwq:1,2016-06-07T14:45:00Z,30.3836,-88.4364,1.06,17.2,1111122 
NERRS,ioos:station:NOAA.NERRS:gndbcwq:1,2016-06-07T15:45:00Z,30.3836,-88.4364,1.11,17.3,1111122 
NERRS,ioos:station:NOAA.NERRS:gndbcwq:1,2016-06-07T16:45:00Z,30.3836,-88.4364,1.12,17.3,1111122 
NERRS,ioos:station:NOAA.NERRS:gndbcwq:1,2016-06-07T17:45:00Z,30.3836,-88.4364,1.09,17.4,1111122 
NERRS,ioos:station:NOAA.NERRS:gndbcwq:1,2016-06-07T18:45:00Z,30.3836,-88.4364,1.05,17.3,1111122 
NERRS,ioos:station:NOAA.NERRS:gndbcwq:1,2016-06-07T19:45:00Z,30.3836,-88.4364,0.98,17.1,1111122 
NERRS,ioos:station:NOAA.NERRS:gndbcwq:1,2016-06-07T20:45:00Z,30.3836,-88.4364,0.92,17.0,1111122 
NERRS,ioos:station:NOAA.NERRS:gndbcwq:1,2016-06-07T21:45:00Z,30.3836,-88.4364,0.85,16.6,1111122 
NERRS,ioos:station:NOAA.NERRS:gndbcwq:1,2016-06-07T22:45:00Z,30.3836,-88.4364,0.77,16.3,1111122 
NERRS,ioos:station:NOAA.NERRS:gndbcwq:1,2016-06-07T23:45:00Z,30.3836,-88.4364,0.69,15.6,1111122 
NERRS,ioos:station:NOAA.NERRS:gndbcwq:1,2016-06-08T00:45:00Z,30.3836,-88.4364,0.61,15.0,1111122 
NERRS,ioos:station:NOAA.NERRS:gndbcwq:1,2016-06-08T01:45:00Z,30.3836,-88.4364,0.52,14.5,1111122 
NERRS,ioos:station:NOAA.NERRS:gndbcwq:1,2016-06-08T02:45:00Z,30.3836,-88.4364,0.48,13.9,1111122 
NERRS,ioos:station:NOAA.NERRS:gndbcwq:1,2016-06-08T03:45:00Z,30.3836,-88.4364,0.47,12.1,1111122 
NERRS,ioos:station:NOAA.NERRS:gndbcwq:1,2016-06-08T04:45:00Z,30.3836,-88.4364,0.49,11.8,1111122 
NERRS,ioos:station:NOAA.NERRS:gndbcwq:1,2016-06-08T05:45:00Z,30.3836,-88.4364,0.51,12.7,1111122 
NERRS,ioos:station:NOAA.NERRS:gndbcwq:1,2016-06-08T06:45:00Z,30.3836,-88.4364,0.55,13.7,1111122 
NERRS,ioos:station:NOAA.NERRS:gndbcwq:1,2016-06-08T07:45:00Z,30.3836,-88.4364,0.6,13.5,1111122 
NERRS,ioos:station:NOAA.NERRS:gndbcwq:1,2016-06-08T08:45:00Z,30.3836,-88.4364,0.62,13.6,1111122 
NERRS,ioos:station:NOAA.NERRS:gndbcwq:1,2016-06-08T09:45:00Z,30.3836,-88.4364,0.66,13.6,1111122 
NERRS,ioos:station:NOAA.NERRS:gndbcwq:1,2016-06-08T10:45:00Z,30.3836,-88.4364,0.71,13.8,1111122 
NERRS,ioos:station:NOAA.NERRS:gndbcwq:1,2016-06-08T11:45:00Z,30.3836,-88.4364,0.76,14.1,1111122 
NERRS,ioos:station:NOAA.NERRS:gndbcwq:1,2016-06-08T12:45:00Z,30.3836,-88.4364,0.8,14.6,1111122 
NERRS,ioos:station:NOAA.NERRS:gndbcwq:1,2016-06-08T13:45:00Z,30.3836,-88.4364,0.83,15.0,1111122 
NERRS,ioos:station:NOAA.NERRS:gndbcwq:1,2016-06-08T14:45:00Z,30.3836,-88.4364,0.86,15.3,1111122 
NERRS,ioos:station:NOAA.NERRS:gndbcwq:1,2016-06-08T15:45:00Z,30.3836,-88.4364,0.91,16.0,1111122 
NERRS,ioos:station:NOAA.NERRS:gndbcwq:1,2016-06-08T16:45:00Z,30.3836,-88.4364,0.93,16.6,1111122 
NERRS,ioos:station:NOAA.NERRS:gndbcwq:1,2016-06-08T17:45:00Z,30.3836,-88.4364,0.93,16.9,1111122 
NERRS,ioos:station:NOAA.NERRS:gndbcwq:1,2016-06-08T18:45:00Z,30.3836,-88.4364,0.9,16.9,1111122 
NERRS,ioos:station:NOAA.NERRS:gndbcwq:1,2016-06-08T19:45:00Z,30.3836,-88.4364,0.85,16.4,1111122 
NERRS,ioos:station:NOAA.NERRS:gndbcwq:1,2016-06-08T20:45:00Z,30.3836,-88.4364,0.81,15.9,1111122 
NERRS,ioos:station:NOAA.NERRS:gndbcwq:1,2016-06-08T21:45:00Z,30.3836,-88.4364,0.75,15.0,1111122 
NERRS,ioos:station:NOAA.NERRS:gndbcwq:1,2016-06-08T22:45:00Z,30.3836,-88.4364,0.69,14.4,1111122 
NERRS,ioos:station:NOAA.NERRS:gndbcwq:1,2016-06-08T23:45:00Z,30.3836,-88.4364,0.6,14.1,1111122 
NERRS,ioos:station:NOAA.NERRS:gndbcwq:1,2016-06-09T00:45:00Z,30.3836,-88.4364,0.51,11.9,1111122 
NERRS,ioos:station:NOAA.NERRS:gndbcwq:1,2016-06-09T01:45:00Z,30.3836,-88.4364,0.45,10.7,1111122 
NERRS,ioos:station:NOAA.NERRS:gndbcwq:1,2016-06-09T02:45:00Z,30.3836,-88.4364,0.43,10.2,1111122 
NERRS,ioos:station:NOAA.NERRS:gndbcwq:1,2016-06-09T03:45:00Z,30.3836,-88.4364,0.4,9.7,1111122 
NERRS,ioos:station:NOAA.NERRS:gndbcwq:1,2016-06-09T04:45:00Z,30.3836,-88.4364,0.41,9.5,1111122 
NERRS,ioos:station:NOAA.NERRS:gndbcwq:1,2016-06-09T05:45:00Z,30.3836,-88.4364,0.43,12.6,1111122 
NERRS,ioos:station:NOAA.NERRS:gndbcwq:1,2016-06-09T06:45:00Z,30.3836,-88.4364,0.44,11.9,1111122 
NERRS,ioos:station:NOAA.NERRS:gndbcwq:1,2016-06-09T07:45:00Z,30.3836,-88.4364,0.48,12.5,1111122 
NERRS,ioos:station:NOAA.NERRS:gndbcwq:1,2016-06-09T08:45:00Z,30.3836,-88.4364,0.52,12.4,1111122 
NERRS,ioos:station:NOAA.NERRS:gndbcwq:1,2016-06-09T09:45:00Z,30.3836,-88.4364,0.57,12.6,1111122 
NERRS,ioos:station:NOAA.NERRS:gndbcwq:1,2016-06-09T10:45:00Z,30.3836,-88.4364,0.63,12.1,1111122 
NERRS,ioos:station:NOAA.NERRS:gndbcwq:1,2016-06-09T11:45:00Z,30.3836,-88.4364,0.68,12.7,1111122 
NERRS,ioos:station:NOAA.NERRS:gndbcwq:1,2016-06-09T12:45:00Z,30.3836,-88.4364,0.71,14.0,1111122 
NERRS,ioos:station:NOAA.NERRS:gndbcwq:1,2016-06-09T13:45:00Z,30.3836,-88.4364,0.76,13.0,1111122 
NERRS,ioos:station:NOAA.NERRS:gndbcwq:1,2016-06-09T14:45:00Z,30.3836,-88.4364,0.8,14.1,1111122 
NERRS,ioos:station:NOAA.NERRS:gndbcwq:1,2016-06-09T15:45:00Z,30.3836,-88.4364,0.86,15.0,1111122 
NERRS,ioos:station:NOAA.NERRS:gndbcwq:1,2016-06-09T16:45:00Z,30.3836,-88.4364,0.89,15.7,1111122 
NERRS,ioos:station:NOAA.NERRS:gndbcwq:1,2016-06-09T17:45:00Z,30.3836,-88.4364,0.89,16.2,1111122 
NERRS,ioos:station:NOAA.NERRS:gndbcwq:1,2016-06-09T18:45:00Z,30.3836,-88.4364,0.87,16.5,1111122 
NERRS,ioos:station:NOAA.NERRS:gndbcwq:1,2016-06-09T19:45:00Z,30.3836,-88.4364,0.82,16.4,1111122 
NERRS,ioos:station:NOAA.NERRS:gndbcwq:1,2016-06-09T20:45:00Z,30.3836,-88.4364,0.78,15.5,1111122 
NERRS,ioos:station:NOAA.NERRS:gndbcwq:1,2016-06-09T21:45:00Z,30.3836,-88.4364,0.74,14.2,1111122 
NERRS,ioos:station:NOAA.NERRS:gndbcwq:1,2016-06-09T22:45:00Z,30.3836,-88.4364,0.68,13.7,1111122 
NERRS,ioos:station:NOAA.NERRS:gndbcwq:1,2016-06-09T23:45:00Z,30.3836,-88.4364,0.6,13.1,1111122 
NERRS,ioos:station:NOAA.NERRS:gndbcwq:1,2016-06-10T00:45:00Z,30.3836,-88.4364,0.52,11.2,1111122 
NERRS,ioos:station:NOAA.NERRS:gndbcwq:1,2016-06-10T01:45:00Z,30.3836,-88.4364,0.46,10.1,1111122 
NERRS,ioos:station:NOAA.NERRS:gndbcwq:1,2016-06-10T02:45:00Z,30.3836,-88.4364,0.45,9.5,1111122 
NERRS,ioos:station:NOAA.NERRS:gndbcwq:1,2016-06-10T03:45:00Z,30.3836,-88.4364,0.46,11.5,1111122 
NERRS,ioos:station:NOAA.NERRS:gndbcwq:1,2016-06-10T04:45:00Z,30.3836,-88.4364,0.49,11.9,1111122 
NERRS,ioos:station:NOAA.NERRS:gndbcwq:1,2016-06-10T05:45:00Z,30.3836,-88.4364,0.5,12.0,1111122 
NERRS,ioos:station:NOAA.NERRS:gndbcwq:1,2016-06-10T06:45:00Z,30.3836,-88.4364,0.51,11.7,1111122 
NERRS,ioos:station:NOAA.NERRS:gndbcwq:1,2016-06-10T07:45:00Z,30.3836,-88.4364,0.51,11.8,1111122 
NERRS,ioos:station:NOAA.NERRS:gndbcwq:1,2016-06-10T08:45:00Z,30.3836,-88.4364,0.54,12.0,1111122 
NERRS,ioos:station:NOAA.NERRS:gndbcwq:1,2016-06-10T09:45:00Z,30.3836,-88.4364,0.6,12.2,1111122 
NERRS,ioos:station:NOAA.NERRS:gndbcwq:1,2016-06-10T10:45:00Z,30.3836,-88.4364,0.64,11.9,1111122 
NERRS,ioos:station:NOAA.NERRS:gndbcwq:1,2016-06-10T11:45:00Z,30.3836,-88.4364,0.67,12.7,1111122 
NERRS,ioos:station:NOAA.NERRS:gndbcwq:1,2016-06-10T12:45:00Z,30.3836,-88.4364,0.7,13.0,1111122 
NERRS,ioos:station:NOAA.NERRS:gndbcwq:1,2016-06-10T13:45:00Z,30.3836,-88.4364,0.74,13.3,1111122 
NERRS,ioos:station:NOAA.NERRS:gndbcwq:1,2016-06-10T14:45:00Z,30.3836,-88.4364,0.77,14.1,1111122 
NERRS,ioos:station:NOAA.NERRS:gndbcwq:1,2016-06-10T15:45:00Z,30.3836,-88.4364,0.8,13.4,1111122 
NERRS,ioos:station:NOAA.NERRS:gndbcwq:1,2016-06-10T16:45:00Z,30.3836,-88.4364,0.82,14.0,1111122 
NERRS,ioos:station:NOAA.NERRS:gndbcwq:1,2016-06-10T17:45:00Z,30.3836,-88.4364,0.81,14.4,1111122 
NERRS,ioos:station:NOAA.NERRS:gndbcwq:1,2016-06-10T18:45:00Z,30.3836,-88.4364,0.78,14.2,1111122 
NERRS,ioos:station:NOAA.NERRS:gndbcwq:1,2016-06-10T19:45:00Z,30.3836,-88.4364,0.75,13.8,1111122 
NERRS,ioos:station:NOAA.NERRS:gndbcwq:1,2016-06-10T20:45:00Z,30.3836,-88.4364,0.72,13.4,1111122 
NERRS,ioos:station:NOAA.NERRS:gndbcwq:1,2016-06-10T21:45:00Z,30.3836,-88.4364,0.71,12.9,1111122 
NERRS,ioos:station:NOAA.NERRS:gndbcwq:1,2016-06-10T22:45:00Z,30.3836,-88.4364,0.67,11.9,1111122 
NERRS,ioos:station:NOAA.NERRS:gndbcwq:1,2016-06-10T23:45:00Z,30.3836,-88.4364,0.61,11.4,1111122 
NERRS,ioos:station:NOAA.NERRS:gndbcwq:1,2016-06-11T00:45:00Z,30.3836,-88.4364,0.54,10.7,1111122 
NERRS,ioos:station:NOAA.NERRS:gndbcwq:1,2016-06-11T01:45:00Z,30.3836,-88.4364,0.52,10.1,1111122 
NERRS,ioos:station:NOAA.NERRS:gndbcwq:1,2016-06-11T02:45:00Z,30.3836,-88.4364,0.5,9.5,1111122 
NERRS,ioos:station:NOAA.NERRS:gndbcwq:1,2016-06-11T03:45:00Z,30.3836,-88.4364,0.49,9.4,1111122 
NERRS,ioos:station:NOAA.NERRS:gndbcwq:1,2016-06-11T04:45:00Z,30.3836,-88.4364,0.51,11.0,1111122 
NERRS,ioos:station:NOAA.NERRS:gndbcwq:1,2016-06-11T05:45:00Z,30.3836,-88.4364,0.53,10.9,1111122 
NERRS,ioos:station:NOAA.NERRS:gndbcwq:1,2016-06-11T06:45:00Z,30.3836,-88.4364,0.55,10.4,1111122 
NERRS,ioos:station:NOAA.NERRS:gndbcwq:1,2016-06-11T07:45:00Z,30.3836,-88.4364,0.57,10.8,1111122 
NERRS,ioos:station:NOAA.NERRS:gndbcwq:1,2016-06-11T08:45:00Z,30.3836,-88.4364,0.56,10.5,1111122 
NERRS,ioos:station:NOAA.NERRS:gndbcwq:1,2016-06-11T09:45:00Z,30.3836,-88.4364,0.61,11.3,1111122 
NERRS,ioos:station:NOAA.NERRS:gndbcwq:1,2016-06-11T10:45:00Z,30.3836,-88.4364,0.66,11.8,1111122 